Tracking 18957 objects as of 21-Jan-2018
HD Live streaming from Space Station
objects crossing your sky now

IRIDIUM 124

Track IRIDIUM 124 now!
10-day predictions
IRIDIUM 124 is classified as:


NORAD ID: 42810
Int'l Code: 2017-039H
Perigee: 615.7 km
Apogee: 631.4 km
Inclination: 85.7 °
Period: 97.0 minutes
Semi major axis: 6994 km
RCS: Unknown
Launch date: June 25, 2017
Source: United States (US)
Launch site: AIR FORCE WESTERN TEST RANGE (AFWTR)
aabbcc
Your satellite tracking list
Your tracking list is empty




NASA's NSSDC Master Catalog

Two Line Element Set (TLE):
1 42810U 17039H   18021.52492853  .00000234  00000-0  24669-4 0  9995
2 42810  85.6810 175.7335 0011234 214.4727 145.5768 14.84098160 31094
Source of the keplerian elements: AFSPC